Wetterdaten: Montag, 16.11.2015
Datum Zeit Auen-Temp. Temp gefhlt Luftfeuchte Luftdruck Regen Wind Richtung Richtung Taupunkt Windben
16.11.2015 00:00 12,2 C 12,1 C 55 % 1019,8 hPa 0,0 mm 7,8 km/h (2 Bft) SW 225 3,4 C 9,1 km/h (2 Bft)
16.11.2015 00:05 12,3 C 12,2 C 55 % 1019,8 hPa 0,0 mm 8,0 km/h (2 Bft) W-SW 247 3,5 C 10,6 km/h (2 Bft)
16.11.2015 00:10 12,1 C 12,0 C 55 % 1019,8 hPa 0,0 mm 8,3 km/h (2 Bft) W-SW 247 3,3 C 12,7 km/h (3 Bft)
16.11.2015 00:15 12,2 C 12,1 C 55 % 1019,6 hPa 0,0 mm 8,0 km/h (2 Bft) SW 225 3,4 C 13,5 km/h (3 Bft)
16.11.2015 00:20 11,9 C 11,9 C 56 % 1019,6 hPa 0,0 mm 7,5 km/h (2 Bft) W 270 3,4 C 8,3 km/h (2 Bft)
16.11.2015 00:25 11,8 C 11,7 C 56 % 1019,6 hPa 0,0 mm 7,0 km/h (2 Bft) W 270 3,3 C 8,5 km/h (2 Bft)
16.11.2015 00:30 11,9 C 11,8 C 56 % 1019,6 hPa 0,0 mm 7,3 km/h (2 Bft) W-SW 247 3,4 C 7,8 km/h (2 Bft)
16.11.2015 00:35 11,9 C 11,8 C 56 % 1019,7 hPa 0,0 mm 7,5 km/h (2 Bft) W-SW 247 3,4 C 14,8 km/h (3 Bft)
16.11.2015 00:40 12,0 C 11,9 C 56 % 1019,7 hPa 0,0 mm 7,5 km/h (2 Bft) SW 225 3,5 C 11,7 km/h (2 Bft)
16.11.2015 00:45 12,0 C 11,9 C 56 % 1019,7 hPa 0,0 mm 7,8 km/h (2 Bft) W-SW 247 3,5 C 6,0 km/h (2 Bft)
16.11.2015 00:50 11,9 C 11,8 C 56 % 1019,7 hPa 0,0 mm 7,3 km/h (2 Bft) W 270 3,4 C 8,8 km/h (2 Bft)
16.11.2015 00:55 11,9 C 11,8 C 56 % 1019,6 hPa 0,0 mm 7,3 km/h (2 Bft) W-SW 247 3,4 C 8,5 km/h (2 Bft)
16.11.2015 01:00 11,9 C 11,8 C 56 % 1019,6 hPa 0,0 mm 7,3 km/h (2 Bft) SW 225 3,4 C 9,1 km/h (2 Bft)
16.11.2015 01:05 12,0 C 11,9 C 56 % 1019,6 hPa 0,0 mm 7,3 km/h (2 Bft) W-SW 247 3,5 C 9,3 km/h (2 Bft)
16.11.2015 01:10 11,9 C 11,8 C 56 % 1019,6 hPa 0,0 mm 7,0 km/h (2 Bft) W-SW 247 3,4 C 7,8 km/h (2 Bft)
16.11.2015 01:15 11,9 C 11,8 C 57 % 1019,4 hPa 0,0 mm 7,3 km/h (2 Bft) SW 225 3,7 C 8,5 km/h (2 Bft)
16.11.2015 01:20 11,9 C 11,8 C 57 % 1019,4 hPa 0,0 mm 7,3 km/h (2 Bft) W 270 3,7 C 7,3 km/h (2 Bft)
16.11.2015 01:25 11,8 C 11,7 C 57 % 1019,4 hPa 0,0 mm 7,0 km/h (2 Bft) W-SW 247 3,6 C 6,7 km/h (2 Bft)
16.11.2015 01:30 11,6 C 11,6 C 57 % 1019,4 hPa 0,0 mm 7,0 km/h (2 Bft) W-SW 247 3,4 C 9,6 km/h (2 Bft)
16.11.2015 01:35 11,9 C 11,8 C 57 % 1019,3 hPa 0,0 mm 7,0 km/h (2 Bft) W-SW 247 3,7 C 17,1 km/h (3 Bft)
16.11.2015 01:40 11,8 C 11,7 C 57 % 1019,3 hPa 0,0 mm 6,7 km/h (2 Bft) W-NW 292 3,6 C 8,8 km/h (2 Bft)
16.11.2015 01:45 11,6 C 11,6 C 57 % 1019,3 hPa 0,0 mm 5,7 km/h (1 Bft) W 270 3,4 C 4,4 km/h (1 Bft)
16.11.2015 01:50 11,5 C 11,5 C 57 % 1019,3 hPa 0,0 mm 5,4 km/h (1 Bft) SW 225 3,3 C 9,1 km/h (2 Bft)
16.11.2015 01:55 11,5 C 11,4 C 57 % 1019,5 hPa 0,0 mm 5,7 km/h (1 Bft) W-SW 247 3,3 C 9,8 km/h (2 Bft)
16.11.2015 02:00 11,5 C 11,4 C 57 % 1019,5 hPa 0,0 mm 6,0 km/h (2 Bft) W-SW 247 3,3 C 6,2 km/h (2 Bft)
16.11.2015 02:05 11,5 C 11,4 C 57 % 1019,5 hPa 0,0 mm 6,5 km/h (2 Bft) SW 225 3,3 C 10,9 km/h (2 Bft)
16.11.2015 02:10 11,5 C 11,4 C 57 % 1019,5 hPa 0,0 mm 6,7 km/h (2 Bft) W-SW 247 3,3 C 7,0 km/h (2 Bft)
16.11.2015 02:15 11,5 C 11,4 C 57 % 1019,3 hPa 0,0 mm 6,7 km/h (2 Bft) W 270 3,3 C 7,8 km/h (2 Bft)
16.11.2015 02:20 11,5 C 11,4 C 57 % 1019,3 hPa 0,0 mm 6,0 km/h (2 Bft) W-SW 247 3,3 C 5,4 km/h (1 Bft)
16.11.2015 02:25 11,4 C 11,3 C 58 % 1019,3 hPa 0,0 mm 5,7 km/h (1 Bft) W-SW 247 3,4 C 8,3 km/h (2 Bft)
16.11.2015 02:30 11,5 C 11,4 C 58 % 1019,3 hPa 0,0 mm 5,7 km/h (1 Bft) W-SW 247 3,5 C 6,2 km/h (2 Bft)
16.11.2015 02:35 11,4 C 11,3 C 58 % 1019,1 hPa 0,0 mm 5,2 km/h (1 Bft) W-SW 247 3,4 C 5,4 km/h (1 Bft)
16.11.2015 02:40 11,4 C 11,3 C 58 % 1019,1 hPa 0,0 mm 4,7 km/h (1 Bft) S 180 3,4 C 6,7 km/h (2 Bft)
16.11.2015 02:45 11,2 C 11,1 C 58 % 1019,1 hPa 0,0 mm 4,9 km/h (1 Bft) S-SW 202 3,2 C 6,2 km/h (2 Bft)
16.11.2015 02:50 11,1 C 11,0 C 58 % 1019,1 hPa 0,0 mm 4,7 km/h (1 Bft) W-SW 247 3,2 C 4,1 km/h (1 Bft)
16.11.2015 02:55 11,1 C 10,9 C 58 % 1019,2 hPa 0,0 mm 4,4 km/h (1 Bft) W-SW 247 3,2 C 6,0 km/h (2 Bft)
16.11.2015 02:58 11,0 C 10,8 C 58 % 1019,2 hPa 0,0 mm 4,1 km/h (1 Bft) W-SW 247 3,1 C 6,2 km/h (2 Bft)
16.11.2015 03:00 11,0 C 10,8 C 58 % 1019,2 hPa 0,0 mm 4,1 km/h (1 Bft) W-SW 247 3,1 C 6,2 km/h (2 Bft)
16.11.2015 03:05 10,8 C 10,7 C 58 % 1019,2 hPa 0,0 mm 4,1 km/h (1 Bft) W 270 2,9 C 5,2 km/h (1 Bft)
16.11.2015 03:10 11,0 C 10,8 C 58 % 1019,2 hPa 0,0 mm 4,4 km/h (1 Bft) W-SW 247 3,1 C 4,4 km/h (1 Bft)
16.11.2015 03:15 11,0 C 10,8 C 58 % 1019,1 hPa 0,0 mm 4,7 km/h (1 Bft) W-SW 247 3,1 C 7,0 km/h (2 Bft)
16.11.2015 03:20 11,0 C 10,8 C 58 % 1019,1 hPa 0,0 mm 4,7 km/h (1 Bft) S-SW 202 3,1 C 6,2 km/h (2 Bft)
16.11.2015 03:25 11,0 C 10,9 C 58 % 1019,1 hPa 0,0 mm 4,4 km/h (1 Bft) W-SW 247 3,1 C 6,2 km/h (2 Bft)
16.11.2015 03:30 11,0 C 10,9 C 58 % 1019,1 hPa 0,0 mm 5,2 km/h (1 Bft) W-SW 247 3,1 C 9,3 km/h (2 Bft)
16.11.2015 03:35 11,1 C 11,0 C 58 % 1019,0 hPa 0,0 mm 5,4 km/h (1 Bft) SW 225 3,2 C 4,7 km/h (1 Bft)
16.11.2015 03:40 11,2 C 11,0 C 58 % 1019,0 hPa 0,0 mm 5,2 km/h (1 Bft) W-SW 247 3,2 C 4,7 km/h (1 Bft)
16.11.2015 03:45 11,2 C 11,1 C 58 % 1019,0 hPa 0,0 mm 4,9 km/h (1 Bft) W 270 3,2 C 11,1 km/h (2 Bft)
16.11.2015 03:50 11,3 C 11,1 C 58 % 1019,0 hPa 0,0 mm 5,2 km/h (1 Bft) W-SW 247 3,3 C 6,5 km/h (2 Bft)
16.11.2015 03:55 11,3 C 11,2 C 58 % 1018,8 hPa 0,0 mm 6,0 km/h (2 Bft) SW 225 3,3 C 5,7 km/h (1 Bft)
16.11.2015 04:00 11,4 C 11,3 C 58 % 1018,8 hPa 0,0 mm 6,2 km/h (2 Bft) W-SW 247 3,4 C 9,3 km/h (2 Bft)
16.11.2015 04:05 11,5 C 11,4 C 58 % 1018,8 hPa 0,0 mm 6,7 km/h (2 Bft) W 270 3,5 C 8,0 km/h (2 Bft)
16.11.2015 04:10 11,5 C 11,4 C 58 % 1018,8 hPa 0,0 mm 6,7 km/h (2 Bft) W-SW 247 3,5 C 7,5 km/h (2 Bft)
16.11.2015 04:15 11,5 C 11,4 C 57 % 1018,7 hPa 0,0 mm 7,0 km/h (2 Bft) W-SW 247 3,3 C 10,1 km/h (2 Bft)
16.11.2015 04:20 11,5 C 11,4 C 57 % 1018,7 hPa 0,0 mm 7,3 km/h (2 Bft) W-SW 247 3,3 C 7,3 km/h (2 Bft)
16.11.2015 04:25 11,5 C 11,4 C 57 % 1018,7 hPa 0,0 mm 7,3 km/h (2 Bft) W-SW 247 3,3 C 9,8 km/h (2 Bft)
16.11.2015 04:30 11,5 C 11,4 C 57 % 1018,7 hPa 0,0 mm 7,3 km/h (2 Bft) W-SW 247 3,3 C 9,8 km/h (2 Bft)
16.11.2015 04:35 11,5 C 11,4 C 57 % 1018,4 hPa 0,0 mm 7,3 km/h (2 Bft) W-SW 247 3,3 C 8,8 km/h (2 Bft)
16.11.2015 04:40 11,6 C 11,5 C 57 % 1018,4 hPa 0,0 mm 7,0 km/h (2 Bft) W-SW 247 3,4 C 5,7 km/h (1 Bft)
16.11.2015 04:45 11,5 C 11,4 C 57 % 1018,4 hPa 0,0 mm 6,5 km/h (2 Bft) SW 225 3,3 C 10,1 km/h (2 Bft)
16.11.2015 04:50 11,5 C 11,4 C 57 % 1018,4 hPa 0,0 mm 6,2 km/h (2 Bft) W-SW 247 3,3 C 6,7 km/h (2 Bft)
16.11.2015 04:55 11,5 C 11,3 C 57 % 1018,3 hPa 0,0 mm 6,0 km/h (2 Bft) SW 225 3,3 C 6,5 km/h (2 Bft)
16.11.2015 05:00 11,5 C 11,4 C 57 % 1018,3 hPa 0,0 mm 6,2 km/h (2 Bft) W-SW 247 3,3 C 6,7 km/h (2 Bft)
16.11.2015 05:05 11,5 C 11,4 C 57 % 1018,3 hPa 0,0 mm 6,2 km/h (2 Bft) SW 225 3,3 C 5,4 km/h (1 Bft)
16.11.2015 05:10 11,3 C 11,2 C 57 % 1018,3 hPa 0,0 mm 5,7 km/h (1 Bft) W-SW 247 3,1 C 6,5 km/h (2 Bft)
16.11.2015 05:15 11,4 C 11,3 C 57 % 1018,2 hPa 0,0 mm 5,7 km/h (1 Bft) S-SW 202 3,2 C 6,0 km/h (2 Bft)
16.11.2015 05:20 11,3 C 11,2 C 57 % 1018,2 hPa 0,0 mm 5,4 km/h (1 Bft) SW 225 3,1 C 7,0 km/h (2 Bft)
16.11.2015 05:25 11,3 C 11,2 C 57 % 1018,2 hPa 0,0 mm 5,2 km/h (1 Bft) W-SW 247 3,1 C 5,7 km/h (1 Bft)
16.11.2015 05:30 11,2 C 11,1 C 57 % 1018,2 hPa 0,0 mm 5,2 km/h (1 Bft) SW 225 3,0 C 7,0 km/h (2 Bft)
16.11.2015 05:35 11,1 C 11,0 C 57 % 1018,4 hPa 0,0 mm 4,9 km/h (1 Bft) W-SW 247 2,9 C 4,9 km/h (1 Bft)
16.11.2015 05:40 11,0 C 10,9 C 57 % 1018,4 hPa 0,0 mm 5,2 km/h (1 Bft) S 180 2,8 C 4,9 km/h (1 Bft)
16.11.2015 05:45 11,0 C 10,9 C 57 % 1018,4 hPa 0,0 mm 5,4 km/h (1 Bft) SW 225 2,8 C 8,5 km/h (2 Bft)
16.11.2015 05:50 11,1 C 10,9 C 57 % 1018,4 hPa 0,0 mm 5,7 km/h (1 Bft) W-SW 247 2,9 C 7,8 km/h (2 Bft)
16.11.2015 05:55 11,2 C 11,0 C 57 % 1018,4 hPa 0,0 mm 6,7 km/h (2 Bft) S 180 3,0 C 8,8 km/h (2 Bft)
16.11.2015 06:00 11,2 C 11,1 C 57 % 1018,4 hPa 0,0 mm 7,0 km/h (2 Bft) S-SW 202 3,0 C 8,5 km/h (2 Bft)
16.11.2015 06:05 11,3 C 11,2 C 57 % 1018,4 hPa 0,0 mm 7,3 km/h (2 Bft) SW 225 3,1 C 7,8 km/h (2 Bft)
16.11.2015 06:10 11,0 C 10,9 C 57 % 1018,4 hPa 0,0 mm 6,5 km/h (2 Bft) S-SW 202 2,8 C 10,4 km/h (2 Bft)
16.11.2015 06:15 11,1 C 11,0 C 57 % 1018,1 hPa 0,0 mm 6,5 km/h (2 Bft) W-SW 247 2,9 C 8,8 km/h (2 Bft)
16.11.2015 06:20 11,3 C 11,1 C 57 % 1018,1 hPa 0,0 mm 7,3 km/h (2 Bft) SW 225 3,1 C 7,5 km/h (2 Bft)
16.11.2015 06:25 11,3 C 11,1 C 57 % 1018,1 hPa 0,0 mm 7,8 km/h (2 Bft) SW 225 3,1 C 11,1 km/h (2 Bft)
16.11.2015 06:30 11,4 C 11,2 C 57 % 1018,1 hPa 0,0 mm 8,0 km/h (2 Bft) S-SW 202 3,2 C 12,9 km/h (3 Bft)
16.11.2015 06:35 11,5 C 11,2 C 57 % 1018,5 hPa 0,0 mm 8,8 km/h (2 Bft) SW 225 3,3 C 7,8 km/h (2 Bft)
16.11.2015 06:40 11,6 C 11,4 C 57 % 1018,5 hPa 0,0 mm 8,8 km/h (2 Bft) SW 225 3,4 C 9,3 km/h (2 Bft)
16.11.2015 06:45 11,7 C 11,5 C 57 % 1018,5 hPa 0,0 mm 8,3 km/h (2 Bft) W-SW 247 3,5 C 8,0 km/h (2 Bft)
16.11.2015 06:50 11,9 C 11,7 C 57 % 1018,5 hPa 0,0 mm 8,0 km/h (2 Bft) W-SW 247 3,7 C 7,8 km/h (2 Bft)
16.11.2015 06:55 11,8 C 11,7 C 57 % 1018,1 hPa 0,0 mm 7,8 km/h (2 Bft) S-SW 202 3,6 C 10,1 km/h (2 Bft)
16.11.2015 07:00 11,8 C 11,7 C 57 % 1018,1 hPa 0,0 mm 7,8 km/h (2 Bft) S-SW 202 3,6 C 10,1 km/h (2 Bft)
16.11.2015 07:05 11,8 C 11,7 C 57 % 1018,1 hPa 0,0 mm 7,8 km/h (2 Bft) S-SW 202 3,6 C 10,1 km/h (2 Bft)
16.11.2015 07:10 11,8 C 11,7 C 57 % 1018,1 hPa 0,0 mm 0,0 km/h (0 Bft) S-SW 202 3,6 C 0,0 km/h (0 Bft)
16.11.2015 07:15 11,8 C 11,7 C 57 % 1018,4 hPa 0,0 mm 0,0 km/h (0 Bft) S-SW 202 3,6 C 0,0 km/h (0 Bft)
16.11.2015 07:20 11,8 C 11,7 C 57 % 1018,4 hPa 0,0 mm 0,0 km/h (0 Bft) S-SW 202 3,6 C 0,0 km/h (0 Bft)
16.11.2015 07:25 11,8 C 11,7 C 57 % 1018,4 hPa 0,0 mm 0,0 km/h (0 Bft) S-SW 202 3,6 C 0,0 km/h (0 Bft)
16.11.2015 07:30 11,8 C 11,7 C 57 % 1018,4 hPa 0,0 mm 0,0 km/h (0 Bft) S-SW 202 3,6 C 0,0 km/h (0 Bft)
16.11.2015 07:35 11,8 C 11,7 C 57 % 1018,4 hPa 0,0 mm 0,0 km/h (0 Bft) S-SW 202 3,6 C 0,0 km/h (0 Bft)
16.11.2015 07:40 11,8 C 11,7 C 57 % 1018,4 hPa 0,0 mm 0,0 km/h (0 Bft) S-SW 202 3,6 C 0,0 km/h (0 Bft)
16.11.2015 07:45 11,8 C 11,7 C 57 % 1018,4 hPa 0,0 mm 0,0 km/h (0 Bft) S-SW 202 3,6 C 0,0 km/h (0 Bft)
16.11.2015 07:50 11,8 C 11,7 C 57 % 1018,4 hPa 0,0 mm 0,0 km/h (0 Bft) S-SW 202 3,6 C 0,0 km/h (0 Bft)
16.11.2015 07:55 11,8 C 11,7 C 57 % 1018,4 hPa 0,0 mm 0,0 km/h (0 Bft) S-SW 202 3,6 C 0,0 km/h (0 Bft)
16.11.2015 08:00 11,8 C 11,7 C 57 % 1018,4 hPa 0,0 mm 0,0 km/h (0 Bft) S-SW 202 3,6 C 0,0 km/h (0 Bft)
16.11.2015 08:05 11,8 C 11,7 C 57 % 1018,4 hPa 0,0 mm 0,0 km/h (0 Bft) S-SW 202 3,6 C 0,0 km/h (0 Bft)
16.11.2015 08:10 11,8 C 11,7 C 57 % 1018,4 hPa 0,0 mm 0,0 km/h (0 Bft) S-SW 202 3,6 C 0,0 km/h (0 Bft)
16.11.2015 08:15 11,8 C 11,7 C 57 % 1018,8 hPa 0,0 mm 0,0 km/h (0 Bft) S-SW 202 3,6 C 0,0 km/h (0 Bft)
16.11.2015 08:20 11,8 C 11,7 C 57 % 1018,8 hPa 0,0 mm 0,0 km/h (0 Bft) S-SW 202 3,6 C 0,0 km/h (0 Bft)
16.11.2015 08:25 11,8 C 11,7 C 57 % 1018,8 hPa 0,0 mm 0,0 km/h (0 Bft) S-SW 202 3,6 C 0,0 km/h (0 Bft)
16.11.2015 08:30 11,8 C 11,7 C 57 % 1018,8 hPa 0,0 mm 0,0 km/h (0 Bft) S-SW 202 3,6 C 0,0 km/h (0 Bft)
16.11.2015 08:35 11,8 C 11,7 C 57 % 1018,8 hPa 0,0 mm 0,0 km/h (0 Bft) S-SW 202 3,6 C 0,0 km/h (0 Bft)
16.11.2015 16:26 11,8 C 11,7 C 57 % 1017,7 hPa 0,0 mm 0,0 km/h (0 Bft) SW 225 3,6 C 0,0 km/h (0 Bft)
16.11.2015 16:32 11,8 C 11,7 C 57 % 1017,7 hPa 0,0 mm 0,0 km/h (0 Bft) SW 225 3,6 C 0,0 km/h (0 Bft)
16.11.2015 16:35 13,1 C 13,0 C 53 % 1017,7 hPa 0,0 mm 3,9 km/h (1 Bft) W 270 3,7 C 9,8 km/h (2 Bft)
16.11.2015 16:40 13,0 C 12,9 C 54 % 1017,7 hPa 0,0 mm 4,7 km/h (1 Bft) W-NW 292 3,9 C 7,0 km/h (2 Bft)
16.11.2015 16:45 13,7 C 13,5 C 53 % 1017,7 hPa 0,0 mm 8,5 km/h (2 Bft) W-SW 247 4,3 C 20,2 km/h (4 Bft)
16.11.2015 16:50 13,5 C 13,4 C 53 % 1017,6 hPa 0,0 mm 8,8 km/h (2 Bft) N-NO 22 4,1 C 19,9 km/h (4 Bft)
16.11.2015 16:55 13,5 C 13,4 C 53 % 1017,6 hPa 0,0 mm 8,8 km/h (2 Bft) W-SW 247 4,1 C 26,7 km/h (4 Bft)
16.11.2015 17:00 13,2 C 13,2 C 53 % 1017,6 hPa 0,0 mm 8,5 km/h (2 Bft) SW 225 3,8 C 11,1 km/h (2 Bft)
16.11.2015 17:05 13,2 C 13,1 C 53 % 1017,6 hPa 0,0 mm 7,3 km/h (2 Bft) SW 225 3,8 C 5,2 km/h (1 Bft)
16.11.2015 17:10 13,0 C 12,9 C 53 % 1017,5 hPa 0,0 mm 8,0 km/h (2 Bft) W-SW 247 3,6 C 8,8 km/h (2 Bft)
16.11.2015 17:15 13,1 C 13,0 C 54 % 1017,5 hPa 0,0 mm 8,8 km/h (2 Bft) W-SW 247 4,0 C 13,5 km/h (3 Bft)
16.11.2015 17:20 13,1 C 13,0 C 54 % 1017,5 hPa 0,0 mm 9,1 km/h (2 Bft) W-SW 247 4,0 C 9,8 km/h (2 Bft)
16.11.2015 17:25 12,9 C 12,8 C 55 % 1017,5 hPa 0,0 mm 8,5 km/h (2 Bft) N 360 4,1 C 9,8 km/h (2 Bft)
16.11.2015 17:30 12,7 C 12,6 C 55 % 1017,3 hPa 0,0 mm 7,3 km/h (2 Bft) SW 225 3,9 C 10,6 km/h (2 Bft)
16.11.2015 17:35 12,5 C 12,4 C 55 % 1017,3 hPa 0,0 mm 6,5 km/h (2 Bft) SW 225 3,7 C 7,8 km/h (2 Bft)
16.11.2015 17:40 12,4 C 12,3 C 56 % 1017,3 hPa 0,0 mm 6,2 km/h (2 Bft) S 180 3,9 C 7,8 km/h (2 Bft)
16.11.2015 17:45 12,4 C 12,2 C 56 % 1017,3 hPa 0,0 mm 6,2 km/h (2 Bft) S-SO 157 3,9 C 7,3 km/h (2 Bft)
16.11.2015 17:50 12,3 C 12,2 C 56 % 1017,6 hPa 0,0 mm 6,5 km/h (2 Bft) SW 225 3,8 C 8,3 km/h (2 Bft)
16.11.2015 17:55 12,2 C 12,1 C 56 % 1017,6 hPa 0,0 mm 7,0 km/h (2 Bft) S-SW 202 3,7 C 8,8 km/h (2 Bft)
16.11.2015 18:00 12,2 C 12,1 C 56 % 1017,6 hPa 0,0 mm 8,0 km/h (2 Bft) SW 225 3,7 C 11,9 km/h (2 Bft)
16.11.2015 18:05 11,9 C 11,8 C 57 % 1017,6 hPa 0,0 mm 7,5 km/h (2 Bft) W-SW 247 3,7 C 9,6 km/h (2 Bft)
16.11.2015 18:10 12,0 C 11,9 C 56 % 1017,7 hPa 0,0 mm 6,7 km/h (2 Bft) O-SO 112 3,5 C 6,0 km/h (2 Bft)
16.11.2015 18:15 12,1 C 11,9 C 56 % 1017,7 hPa 0,0 mm 6,5 km/h (2 Bft) N-NW 337 3,6 C 6,0 km/h (2 Bft)
16.11.2015 18:20 11,8 C 11,7 C 57 % 1017,7 hPa 0,0 mm 7,3 km/h (2 Bft) W-SW 247 3,6 C 14,2 km/h (3 Bft)
16.11.2015 18:25 11,3 C 11,3 C 57 % 1017,7 hPa 0,0 mm 7,3 km/h (2 Bft) W-SW 247 3,1 C 17,9 km/h (3 Bft)
16.11.2015 18:30 11,4 C 11,3 C 58 % 1017,8 hPa 0,0 mm 8,0 km/h (2 Bft) S 180 3,4 C 13,2 km/h (3 Bft)
16.11.2015 18:35 11,1 C 11,0 C 58 % 1017,8 hPa 0,0 mm 7,5 km/h (2 Bft) SW 225 3,2 C 0,0 km/h (0 Bft)
16.11.2015 18:40 11,2 C 11,1 C 58 % 1017,8 hPa 0,0 mm 8,0 km/h (2 Bft) S-SW 202 3,2 C 15,3 km/h (3 Bft)
16.11.2015 18:45 11,9 C 11,6 C 58 % 1017,8 hPa 0,0 mm 9,6 km/h (2 Bft) S-SW 202 3,9 C 14,0 km/h (3 Bft)
16.11.2015 18:50 12,1 C 11,8 C 57 % 1018,0 hPa 0,0 mm 10,6 km/h (2 Bft) S 180 3,8 C 12,7 km/h (3 Bft)
16.11.2015 18:55 12,1 C 11,9 C 56 % 1018,0 hPa 0,0 mm 9,1 km/h (2 Bft) W-SW 247 3,6 C 12,4 km/h (3 Bft)
16.11.2015 19:00 11,9 C 11,8 C 56 % 1018,0 hPa 0,0 mm 8,8 km/h (2 Bft) W-SW 247 3,4 C 10,6 km/h (2 Bft)
16.11.2015 19:05 11,9 C 11,8 C 56 % 1018,0 hPa 0,0 mm 8,0 km/h (2 Bft) SW 225 3,4 C 7,8 km/h (2 Bft)
16.11.2015 19:10 11,9 C 11,8 C 56 % 1018,2 hPa 0,0 mm 7,0 km/h (2 Bft) SW 225 3,4 C 7,0 km/h (2 Bft)
16.11.2015 19:15 11,5 C 11,5 C 56 % 1018,2 hPa 0,0 mm 5,2 km/h (1 Bft) S 180 3,0 C 0,0 km/h (0 Bft)
16.11.2015 19:20 9,6 C 10,9 C 57 % 1018,2 hPa 0,0 mm 3,9 km/h (1 Bft) W-SW 247 1,5 C 5,4 km/h (1 Bft)
16.11.2015 19:25 10,7 C 10,7 C 58 % 1018,2 hPa 0,0 mm 4,1 km/h (1 Bft) W-SW 247 2,8 C 3,6 km/h (1 Bft)
16.11.2015 19:30 9,5 C 10,7 C 58 % 1018,2 hPa 0,0 mm 5,2 km/h (1 Bft) W-SW 247 1,7 C 8,8 km/h (2 Bft)
16.11.2015 19:35 10,9 C 10,8 C 59 % 1018,2 hPa 0,0 mm 6,0 km/h (2 Bft) W-SW 247 3,2 C 10,1 km/h (2 Bft)
16.11.2015 19:40 11,3 C 11,2 C 58 % 1018,2 hPa 0,0 mm 6,7 km/h (2 Bft) W-SW 247 3,3 C 4,7 km/h (1 Bft)
16.11.2015 19:45 11,1 C 11,1 C 58 % 1018,2 hPa 0,0 mm 5,4 km/h (1 Bft) W 270 3,2 C 6,2 km/h (2 Bft)
16.11.2015 19:50 10,9 C 10,9 C 58 % 1018,4 hPa 0,0 mm 3,9 km/h (1 Bft) W 270 3,0 C 4,1 km/h (1 Bft)
16.11.2015 19:55 10,9 C 10,8 C 58 % 1018,4 hPa 0,0 mm 3,4 km/h (1 Bft) W-SW 247 3,0 C 4,4 km/h (1 Bft)
16.11.2015 20:00 10,7 C 10,6 C 58 % 1018,4 hPa 0,0 mm 3,1 km/h (1 Bft) W-SW 247 2,8 C 2,6 km/h (1 Bft)
16.11.2015 20:05 10,7 C 10,5 C 58 % 1018,4 hPa 0,0 mm 2,8 km/h (1 Bft) N 360 2,8 C 2,8 km/h (1 Bft)
16.11.2015 20:10 10,6 C 10,5 C 58 % 1018,3 hPa 0,0 mm 3,1 km/h (1 Bft) S 180 2,7 C 3,4 km/h (1 Bft)
16.11.2015 20:15 10,8 C 10,6 C 58 % 1018,3 hPa 0,0 mm 3,6 km/h (1 Bft) W-SW 247 2,9 C 4,4 km/h (1 Bft)
16.11.2015 20:20 10,7 C 10,5 C 58 % 1018,3 hPa 0,0 mm 4,1 km/h (1 Bft) SW 225 2,8 C 5,2 km/h (1 Bft)
16.11.2015 20:25 10,6 C 10,4 C 58 % 1018,3 hPa 0,0 mm 4,7 km/h (1 Bft) S-SW 202 2,7 C 6,2 km/h (2 Bft)
16.11.2015 20:30 10,5 C 10,4 C 58 % 1018,4 hPa 0,0 mm 4,4 km/h (1 Bft) S 180 2,6 C 5,4 km/h (1 Bft)
16.11.2015 20:35 8,7 C 9,5 C 58 % 1018,4 hPa 0,0 mm 2,3 km/h (1 Bft) NW 315 0,9 C 0,0 km/h (0 Bft)
16.11.2015 20:40 8,4 C 8,9 C 60 % 1018,4 hPa 0,0 mm 1,3 km/h (1 Bft) S 180 1,1 C 4,1 km/h (1 Bft)
16.11.2015 20:45 10,2 C 9,8 C 61 % 1018,4 hPa 0,0 mm 3,6 km/h (1 Bft) S-SW 202 3,0 C 10,9 km/h (2 Bft)
16.11.2015 20:50 10,6 C 10,2 C 59 % 1018,3 hPa 0,0 mm 6,0 km/h (2 Bft) S 180 2,9 C 8,5 km/h (2 Bft)
16.11.2015 20:55 10,6 C 10,3 C 59 % 1018,3 hPa 0,0 mm 7,3 km/h (2 Bft) W-SW 247 2,9 C 12,7 km/h (3 Bft)
16.11.2015 21:00 10,4 C 10,2 C 59 % 1018,3 hPa 0,0 mm 7,0 km/h (2 Bft) SW 225 2,7 C 7,3 km/h (2 Bft)
16.11.2015 21:05 8,2 C 9,5 C 59 % 1018,3 hPa 0,0 mm 4,9 km/h (1 Bft) SW 225 0,7 C 6,0 km/h (2 Bft)
16.11.2015 21:10 7,7 C 9,2 C 61 % 1018,3 hPa 0,0 mm 3,9 km/h (1 Bft) S-SW 202 0,7 C 6,2 km/h (2 Bft)
16.11.2015 21:15 9,6 C 9,5 C 63 % 1018,3 hPa 0,0 mm 5,4 km/h (1 Bft) S-SW 202 2,9 C 9,6 km/h (2 Bft)
16.11.2015 21:20 10,0 C 9,8 C 62 % 1018,3 hPa 0,0 mm 7,0 km/h (2 Bft) SW 225 3,1 C 8,3 km/h (2 Bft)
16.11.2015 21:25 9,9 C 9,7 C 61 % 1018,3 hPa 0,0 mm 7,5 km/h (2 Bft) SW 225 2,7 C 6,7 km/h (2 Bft)
16.11.2015 21:30 8,8 C 9,4 C 60 % 1018,5 hPa 0,0 mm 7,0 km/h (2 Bft) S 180 1,5 C 5,7 km/h (1 Bft)
16.11.2015 21:35 9,0 C 9,3 C 63 % 1018,5 hPa 0,0 mm 6,2 km/h (2 Bft) S-SW 202 2,3 C 11,9 km/h (2 Bft)
16.11.2015 21:40 9,5 C 9,4 C 63 % 1018,5 hPa 0,0 mm 7,0 km/h (2 Bft) SW 225 2,8 C 8,3 km/h (2 Bft)
16.11.2015 21:45 9,6 C 9,4 C 61 % 1018,5 hPa 0,0 mm 8,3 km/h (2 Bft) S 180 2,5 C 9,3 km/h (2 Bft)
16.11.2015 21:50 9,6 C 9,4 C 61 % 1018,3 hPa 0,0 mm 8,3 km/h (2 Bft) SO 135 2,5 C 9,8 km/h (2 Bft)
16.11.2015 21:55 9,3 C 9,3 C 61 % 1018,3 hPa 0,0 mm 7,5 km/h (2 Bft) SW 225 2,2 C 8,0 km/h (2 Bft)
16.11.2015 22:00 8,0 C 9,2 C 60 % 1018,3 hPa 0,0 mm 6,2 km/h (2 Bft) S 180 0,7 C 7,0 km/h (2 Bft)
16.11.2015 22:05 8,5 C 8,9 C 65 % 1018,3 hPa 0,0 mm 5,4 km/h (1 Bft) S 180 2,3 C 3,4 km/h (1 Bft)
16.11.2015 22:10 7,9 C 8,6 C 64 % 1018,3 hPa 0,0 mm 4,4 km/h (1 Bft) SO 135 1,5 C 3,6 km/h (1 Bft)
16.11.2015 22:15 7,5 C 7,8 C 68 % 1018,3 hPa 0,0 mm 1,6 km/h (1 Bft) N-NW 337 2,0 C 0,0 km/h (0 Bft)
16.11.2015 22:20 6,1 C 7,1 C 65 % 1018,3 hPa 0,0 mm 0,5 km/h (0 Bft) N-NW 337 0,0 C 0,0 km/h (0 Bft)
16.11.2015 22:25 5,6 C 5,8 C 67 % 1018,3 hPa 0,0 mm 0,0 km/h (0 Bft) N-NO 22 -0,0 C 0,0 km/h (0 Bft)
16.11.2015 22:29 5,2 C 5,3 C 67 % 1018,7 hPa 0,0 mm 0,0 km/h (0 Bft) N-NW 337 -0,4 C 0,0 km/h (0 Bft)
16.11.2015 22:30 5,2 C 5,3 C 67 % 1018,7 hPa 0,0 mm 0,0 km/h (0 Bft) N-NW 337 -0,4 C 0,0 km/h (0 Bft)
16.11.2015 22:35 5,1 C 4,9 C 68 % 1018,7 hPa 0,0 mm 0,0 km/h (0 Bft) SO 135 -0,3 C 0,0 km/h (0 Bft)
16.11.2015 22:40 5,2 C 4,9 C 70 % 1018,7 hPa 0,0 mm 0,0 km/h (0 Bft) SO 135 0,2 C 0,0 km/h (0 Bft)
16.11.2015 22:45 5,5 C 5,1 C 72 % 1018,7 hPa 0,0 mm 0,0 km/h (0 Bft) SO 135 0,9 C 0,0 km/h (0 Bft)
16.11.2015 22:50 5,7 C 5,6 C 70 % 1018,6 hPa 0,0 mm 0,3 km/h (0 Bft) S-SO 157 0,7 C 0,0 km/h (0 Bft)
16.11.2015 22:55 6,7 C 6,6 C 70 % 1018,6 hPa 0,0 mm 1,6 km/h (1 Bft) S 180 1,6 C 3,6 km/h (1 Bft)
16.11.2015 23:00 5,5 C 5,7 C 71 % 1018,6 hPa 0,0 mm 1,8 km/h (1 Bft) S 180 0,7 C 2,6 km/h (1 Bft)
16.11.2015 23:05 4,3 C 4,8 C 71 % 1018,6 hPa 0,0 mm 1,0 km/h (0 Bft) S 180 -0,5 C 6,2 km/h (2 Bft)
16.11.2015 23:10 4,2 C 4,5 C 72 % 1018,6 hPa 0,0 mm 0,5 km/h (0 Bft) NO 45 -0,4 C 0,0 km/h (0 Bft)
16.11.2015 23:15 5,3 C 5,3 C 72 % 1018,6 hPa 0,0 mm 3,1 km/h (1 Bft) S 180 0,7 C 6,0 km/h (2 Bft)
16.11.2015 23:20 5,0 C 5,6 C 74 % 1018,6 hPa 0,0 mm 4,1 km/h (1 Bft) N 360 0,8 C 4,7 km/h (1 Bft)
16.11.2015 23:25 5,1 C 5,6 C 72 % 1018,6 hPa 0,0 mm 3,9 km/h (1 Bft) W-NW 292 0,5 C 8,3 km/h (2 Bft)
16.11.2015 23:30 5,8 C 6,2 C 75 % 1018,4 hPa 0,0 mm 3,9 km/h (1 Bft) SW 225 1,7 C 9,8 km/h (2 Bft)
16.11.2015 23:35 6,7 C 6,8 C 75 % 1018,4 hPa 0,0 mm 5,2 km/h (1 Bft) NW 315 2,6 C 0,0 km/h (0 Bft)
16.11.2015 23:40 5,0 C 6,5 C 73 % 1018,4 hPa 0,0 mm 4,9 km/h (1 Bft) SW 225 0,6 C 11,4 km/h (2 Bft)
16.11.2015 23:45 4,7 C 6,2 C 74 % 1018,4 hPa 0,0 mm 2,6 km/h (1 Bft) S 180 0,5 C 8,5 km/h (2 Bft)
16.11.2015 23:50 4,8 C 6,0 C 76 % 1018,5 hPa 0,0 mm 3,6 km/h (1 Bft) S-SO 157 0,9 C 5,4 km/h (1 Bft)
16.11.2015 23:55 6,2 C 6,5 C 72 % 1018,5 hPa 0,0 mm 5,7 km/h (1 Bft) S-SW 202 1,5 C 8,0 km/h (2 Bft)
_ Min-Zeit 23:10 23:10 17:10 17:45 - 22:45 - - 23:05 23:35
Minimum _ 4,2 C 4,5 C 53 % 1017,3 hPa - 0,0 km/h (0 Bft) - - -0,5 C 0,0 km/h (0 Bft)
_ Max-Zeit 16:45 16:45 23:50 00:10 23:55 18:50 - - 16:45 16:55
Maximum _ 13,7 C 13,5 C 76 % 1019,8 hPa 0,0 mm 10,6 km/h
S (2 Bft)
- - 4,3 C 26,7 km/h
W-SW (4 Bft)
Durchschnitt _ 10,8 C 10,8 C 59 % 1018,4 hPa #0,0 mm 4,7 km/h (1 Bft) W-SW - 3,0 C 6,2 km/h (2 Bft)